CZ-3B DEB, 40814

Orbit data source: Space-Track

CZ-3B DEB, 40814 is space debris in HEO originally from a launch on Sat, 04 Sep 2010 UTC launched from the Xichang Space Center, China (XSC). Debris objects in space refer to the collection of defunct objects orbiting the Earth. Examples of debris include non-operational satellites, rocket bodies, and fragments generated from explosions, collisions, or faulty payload assembly.

Loading next visibility...
Identifier
40814, 2010-042X
Orbit
HEO
Country
Flag of CNCN / PRC
Related business
Manufacturer
CALT
Mission
Spacecraft
Bus & Motor
Unknown
Mass
Unknown
Launch date (UTC)
2010-09-04 (16 years ago)
Launch vehicle
Unknown
Launch site
Xichang Space Center, China (XSC)
Object type
Payload
Rocket body
Debris
Shape & HBR
Unknown shape, 0.1 m
Radar Cross Section
Medium (>0.1 m² and <1 m²)

Expand to show TLE details & history
Last TLE update: 6 days ago

TLE from 6 days ago
0 CZ-3B DEB
1 40814U 10042X   26114.43388912 -.00000013  00000-0  23836-2 0  9995
2 40814  26.0470 169.6726 7357610 139.0231 309.6527  1.90411960 79743
Epoch: 2026-04-24T10:24Z
TLE epoch observation values (Epoch: 2026-04-24T10:24:48.019Z)
Latitude
0.00003°
Longitude
161.05744°
Altitude
21,995.558 km
Speed
3.688 km/s
True Right ascension
11h 18m 53s
True Declination
0° 00' 00"
Sunlit
Object was in daylight at epoch
Visualization orbit readout
Latitude
Unknown
Longitude
Unknown
Altitude
Unknown
Speed
Unknown
Apparent Right ascension
Unknown
Apparent Declination
Unknown
Sunlit
N/A
Visualization observer readout
Local Sidereal Time
23:48:06
Azimuth
Unknown
Elevation
Unknown
Doppler factor
Unknown
Orbital elements
Apogee altitude
41,355.051 km
Perigee altitude
888.399 km
Semi-major axis
27,499.862 km
Eccentricity
0.73576
Inclination
26.047°
RAAN
169.6726°
Arg. of periapsis
139.0231°
True anomaly
220.98537°
Mean anomaly
309.6527°
Eccentric anomaly
267.53569°
Mean motion
0.47593 °/min
Orbital period
756.41 mins
BSTAR
0.0023836
Loading maneuver chart data...
Computing Atmospheric mass density...
Loading historical data...
Loading historical data...
Loading historical data...
Loading historical data...
Loading historical data...
Loading historical data...
Loading historical data...

Documentation

Showing up to 5 results
|